Commit Graph
100 Commits
Author SHA1 Message Date
Aiden Cline dbdea2f659 fix: better error messages 2025-12-17 15:32:44 -06:00
Aiden Cline a50ab4b5b5 fix: prevent 1 from showing when preparing write 2025-12-17 15:25:04 -06:00
Aiden Cline b5e97eb338 fix: keep session dialog open if deleting session 2025-12-17 11:29:55 -06:00
Aiden Cline 16e6941495 fix: remove needless tui event publish on session delete 2025-12-17 11:29:55 -06:00
Aiden Cline 99101edc13 ci: add windows label to triage bot 2025-12-17 11:01:53 -06:00
Aiden Cline f9d0850c5e test: add regression test for setCacheKey option 2025-12-17 10:24:53 -06:00
Aiden Cline fe8c5c143e docs: update share link 2025-12-17 10:18:30 -06:00
Aiden Cline a6a8f41fd3 ci: tweak triage 2025-12-16 19:27:44 -06:00
Aiden Cline 8a185aa678 ci: fix missing pkg issue 2025-12-16 16:31:46 -06:00
Aiden Cline 984f17ddd7 ci: include desktop & tauri in release notes 2025-12-16 14:37:33 -06:00
Aiden Cline d556143e3b ci: fix branch name 2025-12-16 14:35:42 -06:00
Aiden Cline 7e3ad770ac fix: git branch filewatcher, add flag to completely disable watcher 2025-12-16 14:31:09 -06:00
Aiden Cline 87524de265 ci: fix triage 2025-12-16 14:15:50 -06:00
Aiden Cline ee10d9b898 ci: auto tag github action once a change is shipped for it 2025-12-16 14:13:51 -06:00
Aiden Cline 3ac42e9632 fix: github install cmd if repo has . in it 2025-12-16 11:19:18 -06:00
Aiden Cline 59329a414d ci: tweak triage 2025-12-16 10:09:51 -06:00
Aiden Cline 62f080b0e4 fix: small bug w/ install script 2025-12-16 00:20:05 -06:00
Aiden Cline ae3990a557 chore: centralize dep to catalog & fix typos 2025-12-15 23:07:55 -06:00
Aiden Cline d118782a10 ci: cheaper model 2025-12-15 19:24:30 -06:00
Aiden Cline ff05647350 ci: ignore 2025-12-15 19:18:39 -06:00
Aiden Cline bfb254dac6 ci: auto triage issues 2025-12-15 19:15:40 -06:00
Aiden Cline 89a4f1c1ae tweak: add .catch for extractZip calls 2025-12-15 17:41:28 -06:00
Aiden Cline ca599ab8fc tweak: add model flag support for agent create command 2025-12-15 14:55:59 -06:00
Aiden Cline 81134cf61e add ability to set topK 2025-12-15 14:34:56 -06:00
Aiden Cline 509f7d9617 ignore: fix debug var in last commit 2025-12-14 22:59:30 -06:00
Aiden Cline 9555d348de ci: switch model 2025-12-14 22:41:54 -06:00
Aiden Cline 543dbe71d2 ci: smart oc 2025-12-14 22:36:46 -06:00
Aiden Cline 0c7f0cfa2e tweak: fallback to provider default for temperature 2025-12-14 11:57:12 -06:00
Aiden Cline f8bca50f00 rm unnecessary code 2025-12-13 23:45:15 -06:00
Aiden Cline 3d2ef28fa8 add topK function to transform, add temp defaults for glm and minimax 2025-12-13 23:27:11 -06:00
Aiden Cline 1638ffde69 docs: networking 2025-12-13 18:20:44 -06:00
Aiden Cline d4cfbd8219 chore: reduce duplication of field in transform 2025-12-13 18:07:22 -06:00
Aiden Cline 7bf6f264e4 bump bun version & set flags this time 2025-12-13 13:00:03 -06:00
Aiden Cline b93614cb81 docs: add env vars sections 2025-12-12 16:47:50 -06:00
Aiden Cline f9674793af tweak: 5.1 -> 5. in transform 2025-12-12 15:17:11 -06:00
Aiden Cline 909013320b tweak: 5.1 -> 5. reasoning effort match 2025-12-12 13:21:57 -06:00
Aiden Cline 342595e0f7 tweak: setting chat_template_args in transform 2025-12-11 16:22:10 -06:00
Aiden Cline b41051b4ee tweak(tui): better error msg rendering 2025-12-11 16:22:10 -06:00
Aiden Cline 4e92f54415 tweak: bash tool, try to prevent the cd spam 2025-12-11 14:58:46 -06:00
Aiden Cline 4f5abe387d tweak: bash tool deny msg 2025-12-11 14:46:58 -06:00
Aiden Cline 5b21334fdd fix 2025-12-11 13:55:08 -06:00
Aiden Cline f7e29a1acf downgrade bun 2025-12-11 00:10:58 -06:00
Aiden Cline a8f83cdcb5 ignore: comment out item in project cfg 2025-12-11 00:09:43 -06:00
Aiden Cline 7eb509db14 ci: rm bash tool from opencode ci workflow, reduce risks 2025-12-10 21:45:46 -06:00
Aiden Cline 7b4f852f33 ignore: tmp transform exclusion 2025-12-10 21:18:19 -06:00
Aiden Cline 439aebb4e9 tweak: correct thinkingLevel 2025-12-10 21:13:10 -06:00
Aiden Cline e36c349222 tweak: oc -> OC 2025-12-10 17:06:16 -06:00
Aiden Cline 7d82f1769c tweak: small fix 2025-12-10 16:01:10 -06:00
Aiden Cline 59fb3ae606 ignore: add bash tests 2025-12-10 15:07:40 -06:00
Aiden Cline 6288a032fd bump bun to 1.3.4 2025-12-10 14:48:52 -06:00
Aiden Cline da56319af4 ignore: fix test 2025-12-10 13:31:45 -06:00
Aiden Cline 59c5da9b6c tweak: set gemini thinkingLevel to high by default 2025-12-10 13:09:27 -06:00
Aiden Cline 183a1a181c ci: stop zed sync temporarily 2025-12-10 09:57:34 -06:00
Aiden Cline 070ced0b3f fix: revert hook try/catch that surpressed errors 2025-12-10 00:14:24 -06:00
Aiden Cline b8f5809f95 ignore: rm chalk 2025-12-09 17:54:53 -06:00
Aiden Cline 552ee81455 tweak: add OPENCODE_EXPERIMENTAL_BASH_DEFAULT_TIMEOUT_MS 2025-12-09 17:28:34 -06:00
Aiden Cline 8a9c7a4ef3 add OPENCODE_EXPERIMENTAL_BASH_DEFAULT_TIMEOUT 2025-12-09 15:44:56 -06:00
Aiden Cline dbcc779f0b ci: fix sdk workflow 2025-12-09 15:08:30 -06:00
Aiden Cline 84a0868e66 fix: read when file is svg 2025-12-09 14:24:30 -06:00
Aiden Cline 8c07382382 ci: fix sdk gen 2025-12-09 14:16:22 -06:00
Aiden Cline e23a81097c core: add test to prevent MCP headers regression when OAuth is enabled
Custom headers configured for remote MCP servers were being silently
dropped when OAuth was enabled (the default). This test ensures headers
are always sent to MCP servers regardless of OAuth configuration.
2025-12-09 12:06:40 -06:00
Aiden Cline cec1caf99e ci: sdk stuff 2025-12-09 11:38:22 -06:00
Aiden Cline defe51c825 docs: fix name 2025-12-09 11:34:15 -06:00
Aiden Cline f8bd4ff705 core: refactor providerOptions function to accept Provider.Model for cleaner API 2025-12-09 01:25:36 -06:00
Aiden Cline e282d5dc42 ci: run format workflow after sdk workflow completion 2025-12-09 00:41:40 -06:00
Aiden Cline 654a2cd6a4 core: remove unused fzf dependency to address CVE
- Eliminates fzf binary dependency that was no longer used after file search overhaul
- Removes fzf from Nix package configuration and Arch Linux PKGBUILD dependencies
2025-12-09 00:36:33 -06:00
Aiden Cline ad93d50ab7 ci: ignore 2025-12-08 20:06:27 -06:00
Aiden Cline 7ac17c7833 ci: ignore 2025-12-08 17:45:50 -06:00
Aiden Cline 57c08b01b7 ignore: mark ripgrep as an sst/tap/opencode depends_on 2025-12-08 16:42:32 -06:00
Aiden Cline 4dcda3d53d fix: parcel watcher musl support 2025-12-08 16:08:53 -06:00
Aiden Cline ac70c1e813 docs: lsp & formatters 2025-12-08 12:05:25 -06:00
Aiden Cline f5a77c8cd8 bump plugin versions 2025-12-07 22:42:35 -06:00
Aiden Cline 076c8b2ca1 ci: fix fmt 2025-12-07 21:48:41 -06:00
Aiden Cline d8401e1937 ci: fix fmt 2025-12-07 20:28:50 -06:00
Aiden Cline 9ff39503e9 tweak: additional error msg parsing case 2025-12-07 20:10:54 -06:00
Aiden Cline f9b75a09df ignore: update description 2025-12-07 19:48:23 -06:00
Aiden Cline 9856e3b798 ignore: add test for provider url case 2025-12-07 13:06:12 -06:00
Aiden Cline c30b1130ee fix: provider url merging logic 2025-12-07 13:01:05 -06:00
Aiden Cline eb4afdca65 ci: fix format 2025-12-07 12:17:40 -06:00
Aiden Cline aa884b003e core: prevent sessions from disappearing after git init
Previously, sessions created in a non-git directory would disappear from
the session picker after running git init and making the first commit.
This happened because the migration logic ran prematurely before a stable
project ID existed.
2025-12-06 23:32:47 -06:00
Aiden Cline 3a1718f62b ci: fix review 2025-12-06 17:24:44 -06:00
Aiden Cline 3feb69e63c ci: fix format 2025-12-06 17:15:04 -06:00
Aiden Cline 3e36069f41 fix: reduce overhead of task tool metadata 2025-12-06 16:04:33 -06:00
Aiden Cline df67ae9cbe ci: regen sdk instead of failing tests 2025-12-05 15:01:41 -06:00
Aiden Cline 85974e9acd ignore: regen sdk 2025-12-05 10:50:14 -06:00
Aiden Cline 05d2f70529 ignore: tweak 2025-12-05 01:00:47 -06:00
Aiden Cline a4e5a72c36 ci: keybinds 2025-12-05 00:22:28 -06:00
Aiden Cline e53580cb68 ignore: cmd tweak 2025-12-05 00:11:47 -06:00
Aiden Cline 5013d64b28 ignore: rm slop commnand (only for opencode repo this isnt shipping) 2025-12-04 23:13:41 -06:00
Aiden Cline 767a81f930 fix: ensure that vcs is still set to git even if no commits in repo 2025-12-04 23:02:11 -06:00
Aiden Cline 78046dac8b ci: review 2025-12-04 23:02:11 -06:00
Aiden Cline f9dcd97936 Revert "feat(desktop): terminal pane (#5081)"
This reverts commit d763c11a6d.
2025-12-04 15:57:01 -06:00
Aiden Cline d469d7d441 tweak: bash tool description re commit stuff 2025-12-04 15:27:23 -06:00
Aiden Cline 8a0c86cbdb bump: builtin plugin versions 2025-12-04 12:37:14 -06:00
Aiden Cline a32cf70d7e tui: fix /new slash command being persisted in prompt input 2025-12-04 12:01:13 -06:00
Aiden Cline 350a32274a fix: model not being passed correctly to tool 2025-12-04 11:15:30 -06:00
Aiden Cline 45bc7a6a9d ci: cleaner 2025-12-04 01:14:09 -06:00
Aiden Cline 088ebb967f ci: only maintainer can trigger 2025-12-04 01:07:04 -06:00
Aiden Cline 0237905b96 fix: TypeError: undefined is not an object 2025-12-03 22:03:42 -06:00
Aiden Cline 88cfb979be ci: add note about iife 2025-12-03 21:08:12 -06:00